This is the latest recevied weather packets stored in our database for station/object EA1IRT-1. If no packets are shown the sender has not sent any weather packets the latest 10 day(s).
| Time | Temp. | Humidity | Pressure | Rain* | Wind** | Luminosity | Snow |
|---|---|---|---|---|---|---|---|
| 1777955696 | 11.11° C | 98% | 1014.5 hPa | - | - | - | - |
| 1777954796 | 10.56° C | 99% | 1014.5 hPa | - | - | - | - |
| 1777953896 | 10.56° C | 100% | 1014.6 hPa | - | - | - | - |
| 1777952995 | 10.56° C | 100% | 1014.7 hPa | - | - | - | - |
| 1777952095 | 10.56° C | 100% | 1014.8 hPa | - | - | - | - |
| 1777951195 | 11.11° C | 100% | 1014.9 hPa | - | - | - | - |
| 1777950295 | 10.56° C | 100% | 1014.9 hPa | - | - | - | - |
| 1777949395 | 10.56° C | 100% | 1014.9 hPa | - | - | - | - |
| 1777948495 | 11.11° C | 100% | 1014.9 hPa | - | - | - | - |
| 1777947602 | 11.11° C | 100% | 1015.2 hPa | - | - | - | - |
| 1777946695 | 11.11° C | 100% | 1015.2 hPa | - | - | - | - |
| 1777945795 | 11.11° C | 100% | 1015.4 hPa | - | - | - | - |
| 1777944895 | 11.11° C | 100% | 1015.4 hPa | - | - | - | - |
| 1777943995 | 11.11° C | 100% | 1015.5 hPa | - | - | - | - |
| 1777943095 | 11.11° C | 100% | 1015.6 hPa | - | - | - | - |
| 1777942195 | 181.67° C | 100% | - | - | - | - | - |
| 1777941277 | 11.11° C | 97% | 1015.6 hPa | - | - | - | - |
| 1777940358 | 11.11° C | 100% | 1015.8 hPa | - | - | - | - |
| 1777939458 | 11.11° C | 98% | 1015.9 hPa | - | - | - | - |
| 1777938558 | 11.11° C | 96% | 1015.8 hPa | - | - | - | - |
| 1777937633 | 11.11° C | 95% | 1015.8 hPa | - | - | - | - |
| 1777936711 | 11.11° C | 93% | 1015.9 hPa | - | - | - | - |
| 1777935817 | 11.11° C | 90% | 1015.9 hPa | - | - | - | - |
| 1777934917 | 11.67° C | 90% | 1016 hPa | - | - | - | - |
| 1777934010 | 11.67° C | 91% | 1016 hPa | - | - | - | - |
* Rain since midnight (hover to see other rain measurements)
** Current wind speed in m/s (hover to see current wind gust speed)